TDRS 8

导读

TDRS 8是美国NASA跟踪与数据中继卫星系统(TDRS)的第八颗卫星,由波音公司基于HS 601平台制造,于2000年6月30日发射入轨。卫星搭载两个5米可控反射器,可同时处理S波段、Ku波段信号,为NASA低轨航天器提供持续通信、数据中继服务,是美国空间对地通信网络的重要组成部分,保障了航天任务的稳定数据传输。

Basic Information
目录编号:
26388
目录名称:
TDRS 8
国际标识:
2000-034A
轨道中心:
EARTH
卫星名称:
TDRS 8
卫星全名:
--
卫星状态:
在轨 (已飞行9483 天)
发射日期:
2000-06-30 UTC
国别 :
美国 (US)
星等 :
--
Orbit Information
数据来源 国际轨道数据 AOE轨道数据
星历时间 2026-06-16T23:07:41+0800
1天前
查看轨道信息
2026-06-17T07:00:00+0800
21小时前
查看轨道信息
半长轴 42166.018km 42165.934km
偏心率 0.0004578 0.0004615
轨道倾角 12.683° 12.684°
近地点辐角 18.808° 18.052°
升交点赤经 31.327° 31.327°
平近点角 166.295° 285.450°
近地点 35768.577km 35768.337km
远地点 35807.185km 35807.257km
周期 1436.163分钟 1436.158分钟
每日圈数 1.002672 1.002675
Detailed Information
使用方式:
暂无
2D Orbit Map
3D Orbit Map
Orbit Altitude Analysis Chart
Orbit Inclination Analysis Chart
Orbit Comprehensive Analysis Chart
View Comprehensive Chart